Time,TemperatureF,DewpointF,PressureIn,WindDirection,WindDirectionDegrees,WindSpeedMPH,WindSpeedGustMPH,Humidity,HourlyPrecipIn,Conditions,Clouds,dailyrainin,SoftwareType,DateUTC
2013-03-06 00:02:00,72.0,-99.9,30.16,ENE,68,3.0,6.0,-999,-99.99,,,-99.99,,2013-03-06 10:02:00,
2013-03-06 00:11:00,72.0,-99.9,30.15,ENE,77,2.0,3.0,-999,-99.99,,,-99.99,,2013-03-06 10:11:00,
2013-03-06 00:22:00,72.0,-99.9,30.15,East,95,1.0,4.0,-999,-99.99,,,-99.99,,2013-03-06 10:22:00,
2013-03-06 00:32:00,72.0,-99.9,30.15,NE,47,4.0,11.0,-999,-99.99,,,-99.99,,2013-03-06 10:32:00,
2013-03-06 00:42:00,72.0,-99.9,30.15,NE,38,6.0,9.0,-999,-99.99,,,-99.99,,2013-03-06 10:42:00,
2013-03-06 00:52:00,72.0,-99.9,30.15,ENE,62,4.0,11.0,-999,-99.99,,,-99.99,,2013-03-06 10:52:00,
2013-03-06 01:02:00,72.0,-99.9,30.14,ENE,63,7.0,10.0,-999,-99.99,,,-99.99,,2013-03-06 11:02:00,
2013-03-06 01:11:00,72.0,-99.9,30.14,East,89,1.0,6.0,-999,-99.99,,,-99.99,,2013-03-06 11:11:00,
2013-03-06 01:23:00,72.0,-99.9,30.14,NE,50,2.0,13.0,-999,-99.99,,,-99.99,,2013-03-06 11:23:00,
2013-03-06 01:32:00,72.0,-99.9,30.14,ESE,114,6.0,11.0,-999,-99.99,,,-99.99,,2013-03-06 11:32:00,
2013-03-06 01:43:00,71.0,-99.9,30.14,ENE,69,4.0,8.0,-999,-99.99,,,-99.99,,2013-03-06 11:43:00,
2013-03-06 01:53:00,71.0,-99.9,30.14,NE,53,5.0,7.0,-999,-99.99,,,-99.99,,2013-03-06 11:53:00,
2013-03-06 02:02:00,71.0,-99.9,30.13,East,99,6.0,12.0,-999,-99.99,,,-99.99,,2013-03-06 12:02:00,
2013-03-06 02:12:00,71.0,-99.9,30.13,ENE,77,3.0,8.0,-999,-99.99,,,-99.99,,2013-03-06 12:12:00,
2013-03-06 02:22:00,71.0,-99.9,30.13,East,89,3.0,7.0,-999,-99.99,,,-99.99,,2013-03-06 12:22:00,
2013-03-06 02:33:00,71.0,-99.9,30.12,ENE,62,3.0,6.0,-999,-99.99,,,-99.99,,2013-03-06 12:33:00,
2013-03-06 02:43:00,71.0,-99.9,30.12,NE,45,3.0,6.0,-999,-99.99,,,-99.99,,2013-03-06 12:43:00,
2013-03-06 02:53:00,71.0,-99.9,30.11,NE,56,4.0,7.0,-999,-99.99,,,-99.99,,2013-03-06 12:53:00,
2013-03-06 03:02:00,71.0,-99.9,30.11,ESE,119,3.0,6.0,-999,-99.99,,,-99.99,,2013-03-06 13:02:00,
2013-03-06 03:12:00,71.0,-99.9,30.11,NE,51,5.0,8.0,-999,-99.99,,,-99.99,,2013-03-06 13:12:00,
2013-03-06 03:22:00,71.0,-99.9,30.10,NE,50,5.0,9.0,-999,-99.99,,,-99.99,,2013-03-06 13:22:00,
2013-03-06 03:32:00,71.0,-99.9,30.10,NE,52,4.0,7.0,-999,-99.99,,,-99.99,,2013-03-06 13:32:00,
2013-03-06 03:42:00,71.0,-99.9,30.10,ENE,69,4.0,5.0,-999,-99.99,,,-99.99,,2013-03-06 13:42:00,
2013-03-06 03:52:00,71.0,-99.9,30.10,ENE,62,2.0,3.0,-999,-99.99,,,-99.99,,2013-03-06 13:52:00,
2013-03-06 04:02:00,71.0,-99.9,30.10,NE,51,3.0,6.0,-999,-99.99,,,-99.99,,2013-03-06 14:02:00,
2013-03-06 04:11:00,71.0,-99.9,30.10,ENE,70,3.0,7.0,-999,-99.99,,,-99.99,,2013-03-06 14:11:00,
2013-03-06 04:22:00,71.0,-99.9,30.09,NE,51,0.0,3.0,-999,-99.99,,,-99.99,,2013-03-06 14:22:00,
2013-03-06 04:32:00,71.0,-99.9,30.09,North,11,4.0,11.0,-999,-99.99,,,-99.99,,2013-03-06 14:32:00,
2013-03-06 04:42:00,71.0,-99.9,30.09,ENE,66,3.0,9.0,-999,-99.99,,,-99.99,,2013-03-06 14:42:00,
2013-03-06 04:53:00,71.0,-99.9,30.08,ESE,110,6.0,10.0,-999,-99.99,,,-99.99,,2013-03-06 14:53:00,
2013-03-06 05:02:00,71.0,-99.9,30.08,NE,55,4.0,11.0,-999,-99.99,,,-99.99,,2013-03-06 15:02:00,
2013-03-06 05:12:00,71.0,-99.9,30.08,ENE,60,6.0,11.0,-999,-99.99,,,-99.99,,2013-03-06 15:12:00,
2013-03-06 05:22:00,71.0,-99.9,30.08,NE,46,7.0,11.0,-999,-99.99,,,-99.99,,2013-03-06 15:22:00,
2013-03-06 05:32:00,71.0,-99.9,30.09,NE,54,2.0,5.0,-999,-99.99,,,-99.99,,2013-03-06 15:32:00,
2013-03-06 05:42:00,71.0,-99.9,30.09,ENE,64,3.0,5.0,-999,-99.99,,,-99.99,,2013-03-06 15:42:00,
2013-03-06 05:52:00,71.0,-99.9,30.09,ENE,65,2.0,4.0,-999,-99.99,,,-99.99,,2013-03-06 15:52:00,
2013-03-06 06:02:00,71.0,-99.9,30.09,East,100,2.0,4.0,-999,-99.99,,,-99.99,,2013-03-06 16:02:00,
2013-03-06 06:12:00,71.0,-99.9,30.09,SE,131,3.0,6.0,-999,-99.99,,,-99.99,,2013-03-06 16:12:00,
2013-03-06 06:22:00,71.0,-99.9,30.09,NNE,32,1.0,5.0,-999,-99.99,,,-99.99,,2013-03-06 16:22:00,
2013-03-06 06:32:00,71.0,-99.9,30.09,East,93,2.0,6.0,-999,-99.99,,,-99.99,,2013-03-06 16:32:00,
2013-03-06 06:42:00,71.0,-99.9,30.10,East,81,2.0,9.0,-999,-99.99,,,-99.99,,2013-03-06 16:42:00,
2013-03-06 06:52:00,71.0,-99.9,30.10,East,92,4.0,9.0,-999,-99.99,,,-99.99,,2013-03-06 16:52:00,
2013-03-06 07:01:00,71.0,-99.9,30.11,ENE,59,4.0,7.0,-999,-99.99,,,-99.99,,2013-03-06 17:01:00,
2013-03-06 07:11:00,71.0,-99.9,30.11,ENE,75,1.0,4.0,-999,-99.99,,,-99.99,,2013-03-06 17:11:00,
2013-03-06 07:22:00,71.0,-99.9,30.11,East,80,2.0,4.0,-999,-99.99,,,-99.99,,2013-03-06 17:22:00,
2013-03-06 07:32:00,71.0,-99.9,30.11,East,96,2.0,8.0,-999,-99.99,,,-99.99,,2013-03-06 17:32:00,
2013-03-06 07:42:00,72.0,-99.9,30.11,East,99,2.0,8.0,-999,-99.99,,,-99.99,,2013-03-06 17:42:00,
2013-03-06 07:53:00,72.0,-99.9,30.11,East,82,4.0,6.0,-999,-99.99,,,-99.99,,2013-03-06 17:53:00,
2013-03-06 08:02:00,72.0,-99.9,30.12,NE,52,8.0,13.0,-999,-99.99,,,-99.99,,2013-03-06 18:02:00,
2013-03-06 08:29:00,73.0,-99.9,30.13,ENE,62,3.0,9.0,-999,-99.99,,,-99.99,,2013-03-06 18:29:00,
2013-03-06 08:42:00,74.0,-99.9,30.14,ENE,70,5.0,11.0,-999,-99.99,,,-99.99,,2013-03-06 18:42:00,
2013-03-06 08:53:00,74.0,-99.9,30.14,ENE,64,5.0,11.0,-999,-99.99,,,-99.99,,2013-03-06 18:53:00,
2013-03-06 09:02:00,74.0,-99.9,30.14,NE,54,6.0,10.0,-999,-99.99,,,-99.99,,2013-03-06 19:02:00,
2013-03-06 09:11:00,74.0,-99.9,30.14,ENE,75,5.0,11.0,-999,-99.99,,,-99.99,,2013-03-06 19:11:00,
2013-03-06 09:22:00,74.0,-99.9,30.14,NE,54,6.0,12.0,-999,-99.99,,,-99.99,,2013-03-06 19:22:00,
2013-03-06 09:33:00,75.0,-99.9,30.14,East,79,4.0,10.0,-999,-99.99,,,-99.99,,2013-03-06 19:33:00,
2013-03-06 09:43:00,76.0,-99.9,30.14,ESE,110,5.0,11.0,-999,-99.99,,,-99.99,,2013-03-06 19:43:00,
2013-03-06 09:53:00,76.0,-99.9,30.15,NE,56,4.0,15.0,-999,-99.99,,,-99.99,,2013-03-06 19:53:00,
2013-03-06 10:02:00,75.0,-99.9,30.15,ENE,72,6.0,13.0,-999,-99.99,,,-99.99,,2013-03-06 20:02:00,
2013-03-06 10:12:00,76.0,-99.9,30.16,ENE,66,6.0,10.0,-999,-99.99,,,-99.99,,2013-03-06 20:12:00,
2013-03-06 10:23:00,76.0,-99.9,30.16,ESE,106,7.0,12.0,-999,-99.99,,,-99.99,,2013-03-06 20:23:00,
2013-03-06 10:33:00,76.0,-99.9,30.16,ENE,75,5.0,17.0,-999,-99.99,,,-99.99,,2013-03-06 20:33:00,
2013-03-06 10:43:00,76.0,-99.9,30.16,East,98,6.0,13.0,-999,-99.99,,,-99.99,,2013-03-06 20:43:00,
2013-03-06 10:53:00,76.0,-99.9,30.16,East,97,7.0,11.0,-999,-99.99,,,-99.99,,2013-03-06 20:53:00,
2013-03-06 11:02:00,77.0,-99.9,30.16,ESE,108,7.0,13.0,-999,-99.99,,,-99.99,,2013-03-06 21:02:00,
2013-03-06 11:12:00,77.0,-99.9,30.16,East,101,4.0,11.0,-999,-99.99,,,-99.99,,2013-03-06 21:12:00,
2013-03-06 11:22:00,76.0,-99.9,30.16,East,94,8.0,15.0,-999,-99.99,,,-99.99,,2013-03-06 21:22:00,
2013-03-06 11:33:00,77.0,-99.9,30.16,ENE,69,7.0,14.0,-999,-99.99,,,-99.99,,2013-03-06 21:33:00,
2013-03-06 11:43:00,77.0,-99.9,30.15,ESE,119,6.0,11.0,-999,-99.99,,,-99.99,,2013-03-06 21:43:00,
2013-03-06 11:52:00,77.0,-99.9,30.15,NE,56,10.0,12.0,-999,-99.99,,,-99.99,,2013-03-06 21:52:00,
2013-03-06 12:02:00,77.0,-99.9,30.14,ESE,111,5.0,13.0,-999,-99.99,,,-99.99,,2013-03-06 22:02:00,
2013-03-06 12:12:00,77.0,-99.9,30.14,ENE,63,6.0,11.0,-999,-99.99,,,-99.99,,2013-03-06 22:12:00,
2013-03-06 12:22:00,78.0,-99.9,30.14,ESE,109,6.0,10.0,-999,-99.99,,,-99.99,,2013-03-06 22:22:00,
2013-03-06 12:32:00,77.0,-99.9,30.13,ESE,122,6.0,12.0,-999,-99.99,,,-99.99,,2013-03-06 22:32:00,
2013-03-06 12:42:00,78.0,-99.9,30.13,ESE,104,7.0,11.0,-999,-99.99,,,-99.99,,2013-03-06 22:42:00,
2013-03-06 12:52:00,77.0,-99.9,30.13,ESE,118,4.0,14.0,-999,-99.99,,,-99.99,,2013-03-06 22:52:00,
2013-03-06 13:02:00,78.0,-99.9,30.12,East,85,4.0,12.0,-999,-99.99,,,-99.99,,2013-03-06 23:02:00,
2013-03-06 13:11:00,79.0,-99.9,30.11,East,99,6.0,12.0,-999,-99.99,,,-99.99,,2013-03-06 23:11:00,
2013-03-06 13:22:00,77.0,-99.9,30.11,ENE,76,10.0,15.0,-999,-99.99,,,-99.99,,2013-03-06 23:22:00,
2013-03-06 13:32:00,79.0,-99.9,30.11,East,100,6.0,13.0,-999,-99.99,,,-99.99,,2013-03-06 23:32:00,
2013-03-06 13:42:00,79.0,-99.9,30.10,ESE,105,5.0,14.0,-999,-99.99,,,-99.99,,2013-03-06 23:42:00,
2013-03-06 13:52:00,78.0,-99.9,30.10,East,94,7.0,11.0,-999,-99.99,,,-99.99,,2013-03-06 23:52:00,
2013-03-06 14:02:00,78.0,-99.9,30.09,ESE,109,8.0,14.0,-999,-99.99,,,-99.99,,2013-03-07 00:02:00,
2013-03-06 14:11:00,78.0,-99.9,30.09,NE,55,7.0,16.0,-999,-99.99,,,-99.99,,2013-03-07 00:11:00,
2013-03-06 14:22:00,79.0,-99.9,30.09,ESE,106,4.0,10.0,-999,-99.99,,,-99.99,,2013-03-07 00:22:00,
2013-03-06 14:32:00,79.0,-99.9,30.08,East,101,6.0,11.0,-999,-99.99,,,-99.99,,2013-03-07 00:32:00,
2013-03-06 14:42:00,77.0,-99.9,30.08,ENE,63,5.0,13.0,-999,-99.99,,,-99.99,,2013-03-07 00:42:00,
2013-03-06 14:52:00,77.0,-99.9,30.08,NE,49,9.0,14.0,-999,-99.99,,,-99.99,,2013-03-07 00:52:00,
2013-03-06 15:02:00,77.0,-99.9,30.08,NE,53,8.0,13.0,-999,-99.99,,,-99.99,,2013-03-07 01:02:00,
2013-03-06 15:12:00,78.0,-99.9,30.08,ESE,107,6.0,12.0,-999,-99.99,,,-99.99,,2013-03-07 01:12:00,
2013-03-06 15:22:00,78.0,-99.9,30.08,East,89,5.0,9.0,-999,-99.99,,,-99.99,,2013-03-07 01:22:00,
2013-03-06 15:32:00,77.0,-99.9,30.07,East,85,8.0,11.0,-999,-99.99,,,-99.99,,2013-03-07 01:32:00,
2013-03-06 15:42:00,76.0,-99.9,30.07,ENE,60,8.0,11.0,-999,-99.99,,,-99.99,,2013-03-07 01:42:00,
2013-03-06 15:52:00,76.0,-99.9,30.07,ENE,62,6.0,14.0,-999,-99.99,,,-99.99,,2013-03-07 01:52:00,
2013-03-06 16:01:00,76.0,-99.9,30.07,ENE,58,8.0,13.0,-999,-99.99,,,-99.99,,2013-03-07 02:01:00,
2013-03-06 16:11:00,76.0,-99.9,30.07,NE,51,10.0,13.0,-999,-99.99,,,-99.99,,2013-03-07 02:11:00,
2013-03-06 16:22:00,76.0,-99.9,30.07,NE,52,7.0,15.0,-999,-99.99,,,-99.99,,2013-03-07 02:22:00,
2013-03-06 16:32:00,76.0,-99.9,30.08,NE,48,12.0,18.0,-999,-99.99,,,-99.99,,2013-03-07 02:32:00,
2013-03-06 16:42:00,76.0,-99.9,30.08,NE,48,12.0,18.0,-999,-99.99,,,-99.99,,2013-03-07 02:42:00,
2013-03-06 16:52:00,76.0,-99.9,30.08,NE,48,12.0,18.0,-999,-99.99,,,-99.99,,2013-03-07 02:52:00,
2013-03-06 17:02:00,76.0,-99.9,30.07,ENE,60,7.0,13.0,-999,-99.99,,,-99.99,,2013-03-07 03:02:00,
2013-03-06 17:12:00,75.0,-99.9,30.08,ENE,57,11.0,15.0,-999,-99.99,,,-99.99,,2013-03-07 03:12:00,
2013-03-06 17:22:00,76.0,-99.9,30.08,ENE,69,10.0,17.0,-999,-99.99,,,-99.99,,2013-03-07 03:22:00,
2013-03-06 17:32:00,76.0,-99.9,30.08,ENE,59,8.0,17.0,-999,-99.99,,,-99.99,,2013-03-07 03:32:00,
2013-03-06 17:42:00,76.0,-99.9,30.08,ENE,77,4.0,11.0,-999,-99.99,,,-99.99,,2013-03-07 03:42:00,
2013-03-06 17:52:00,77.0,-99.9,30.08,ENE,77,3.0,9.0,-999,-99.99,,,-99.99,,2013-03-07 03:52:00,
2013-03-06 18:02:00,76.0,-99.9,30.08,ENE,75,4.0,9.0,-999,-99.99,,,-99.99,,2013-03-07 04:02:00,
2013-03-06 18:12:00,75.0,-99.9,30.08,NE,53,4.0,12.0,-999,-99.99,,,-99.99,,2013-03-07 04:12:00,
2013-03-06 18:22:00,75.0,-99.9,30.08,ENE,66,5.0,11.0,-999,-99.99,,,-99.99,,2013-03-07 04:22:00,
2013-03-06 18:32:00,75.0,-99.9,30.08,ENE,77,2.0,8.0,-999,-99.99,,,-99.99,,2013-03-07 04:32:00,
2013-03-06 18:42:00,75.0,-99.9,30.08,ESE,102,5.0,9.0,-999,-99.99,,,-99.99,,2013-03-07 04:42:00,
2013-03-06 18:52:00,74.0,-99.9,30.08,ENE,58,4.0,9.0,-999,-99.99,,,-99.99,,2013-03-07 04:52:00,
2013-03-06 19:02:00,74.0,-99.9,30.08,ENE,73,4.0,6.0,-999,-99.99,,,-99.99,,2013-03-07 05:02:00,
2013-03-06 19:12:00,73.0,-99.9,30.08,NE,39,4.0,8.0,-999,-99.99,,,-99.99,,2013-03-07 05:12:00,
2013-03-06 19:23:00,73.0,-99.9,30.08,NE,53,4.0,7.0,-999,-99.99,,,-99.99,,2013-03-07 05:23:00,
2013-03-06 19:32:00,73.0,-99.9,30.09,NE,48,2.0,9.0,-999,-99.99,,,-99.99,,2013-03-07 05:32:00,
2013-03-06 19:42:00,73.0,-99.9,30.09,NE,40,6.0,11.0,-999,-99.99,,,-99.99,,2013-03-07 05:42:00,
2013-03-06 19:53:00,73.0,-99.9,30.09,East,82,4.0,6.0,-999,-99.99,,,-99.99,,2013-03-07 05:53:00,
2013-03-06 20:02:00,73.0,-99.9,30.09,East,88,3.0,6.0,-999,-99.99,,,-99.99,,2013-03-07 06:02:00,
2013-03-06 20:11:00,73.0,-99.9,30.10,ENE,76,3.0,6.0,-999,-99.99,,,-99.99,,2013-03-07 06:11:00,
2013-03-06 20:22:00,73.0,-99.9,30.10,East,89,4.0,9.0,-999,-99.99,,,-99.99,,2013-03-07 06:22:00,
2013-03-06 20:32:00,73.0,-99.9,30.11,ENE,60,5.0,9.0,-999,-99.99,,,-99.99,,2013-03-07 06:32:00,
2013-03-06 20:42:00,73.0,-99.9,30.11,East,96,2.0,5.0,-999,-99.99,,,-99.99,,2013-03-07 06:42:00,
2013-03-06 20:52:00,73.0,-99.9,30.11,ENE,71,2.0,7.0,-999,-99.99,,,-99.99,,2013-03-07 06:52:00,
2013-03-06 21:02:00,73.0,-99.9,30.12,ESE,104,3.0,7.0,-999,-99.99,,,-99.99,,2013-03-07 07:02:00,
2013-03-06 21:11:00,73.0,-99.9,30.12,ENE,75,2.0,8.0,-999,-99.99,,,-99.99,,2013-03-07 07:11:00,
2013-03-06 21:22:00,73.0,-99.9,30.12,ENE,70,4.0,6.0,-999,-99.99,,,-99.99,,2013-03-07 07:22:00,
2013-03-06 21:32:00,72.0,-99.9,30.13,ESE,123,5.0,11.0,-999,-99.99,,,-99.99,,2013-03-07 07:32:00,
2013-03-06 21:43:00,72.0,-99.9,30.13,NE,51,3.0,7.0,-999,-99.99,,,-99.99,,2013-03-07 07:43:00,
2013-03-06 21:53:00,72.0,-99.9,30.13,ENE,65,4.0,7.0,-999,-99.99,,,-99.99,,2013-03-07 07:53:00,
2013-03-06 22:03:00,72.0,-99.9,30.13,East,81,3.0,5.0,-999,-99.99,,,-99.99,,2013-03-07 08:03:00,
2013-03-06 22:12:00,72.0,-99.9,30.13,East,87,1.0,4.0,-999,-99.99,,,-99.99,,2013-03-07 08:12:00,
2013-03-06 22:23:00,72.0,-99.9,30.13,NNE,33,2.0,4.0,-999,-99.99,,,-99.99,,2013-03-07 08:23:00,
2013-03-06 22:34:00,72.0,-99.9,30.14,East,94,2.0,2.0,-999,-99.99,,,-99.99,,2013-03-07 08:34:00,
2013-03-06 22:45:00,72.0,-99.9,30.14,NE,38,3.0,4.0,-999,-99.99,,,-99.99,,2013-03-07 08:45:00,
2013-03-06 22:54:00,72.0,-99.9,30.14,NNE,19,-999.0,1.0,-999,-99.99,,,-99.99,,2013-03-07 08:54:00,
2013-03-06 23:03:00,72.0,-99.9,30.14,WSW,237,3.0,4.0,-999,-99.99,,,-99.99,,2013-03-07 09:03:00,
2013-03-06 23:14:00,72.0,-99.9,30.14,WSW,254,3.0,3.0,-999,-99.99,,,-99.99,,2013-03-07 09:14:00,
2013-03-06 23:24:00,72.0,-99.9,30.13,WNW,284,2.0,4.0,-999,-99.99,,,-99.99,,2013-03-07 09:24:00,
2013-03-06 23:33:00,72.0,-99.9,30.13,East,83,1.0,2.0,-999,-99.99,,,-99.99,,2013-03-07 09:33:00,
2013-03-06 23:43:00,71.0,-99.9,30.13,South,177,1.0,2.0,-999,-99.99,,,-99.99,,2013-03-07 09:43:00,
2013-03-06 23:54:00,71.0,-99.9,30.13,East,100,-999.0,1.0,-999,-99.99,,,-99.99,,2013-03-07 09:54:00,